This is the latest recevied weather packets stored in our database for station/object SP9EPI-13. If no packets are shown the sender has not sent any weather packets the latest 1 day(s).
| Time | Temp. | Humidity | Pressure | Rain* | Wind** | Luminosity | Snow |
|---|---|---|---|---|---|---|---|
| 1777976401 | 27.78° C | 23% | 1005.7 hPa | - | 4.02 m/s, 149° | - | - |
| 1777975800 | 27.78° C | 21% | 1005.7 hPa | - | 4.02 m/s, 69° | - | - |
| 1777975201 | 27.78° C | 24% | 1005.7 hPa | - | 1.79 m/s, 90° | - | - |
| 1777974600 | 27.22° C | 23% | 1005.7 hPa | - | 4.02 m/s, 94° | - | - |
| 1777974000 | 27.78° C | 23% | 1005.7 hPa | - | 4.92 m/s, 187° | - | - |
| 1777973401 | 27.78° C | 28% | 1006.1 hPa | - | 1.79 m/s, 98° | - | - |
| 1777972800 | 27.22° C | 22% | 1006.1 hPa | - | 8.05 m/s, 168° | - | - |
| 1777972201 | 27.22° C | 23% | 1006.1 hPa | - | 4.92 m/s, 227° | - | - |
| 1777971601 | 0° C | 100% | 0 hPa | - | 0 m/s | - | - |
| 1777971000 | 27.22° C | 26% | 1006.4 hPa | - | 4.02 m/s, 164° | - | - |
| 1777970400 | 27.22° C | 22% | 1006.4 hPa | - | 0.89 m/s, 61° | - | - |
| 1777969800 | 27.22° C | 25% | 1006.4 hPa | - | 0.89 m/s, 180° | - | - |
| 1777969201 | 26.11° C | 23% | 1006.4 hPa | - | 4.02 m/s, 252° | - | - |
| 1777968601 | 27.22° C | 29% | 1006.7 hPa | - | 4.02 m/s, 168° | - | - |
| 1777968007 | 26.11° C | 29% | 1006.7 hPa | - | 4.02 m/s, 230° | - | - |
| 1777967401 | 26.11° C | 29% | 1006.7 hPa | - | 0.89 m/s, 160° | - | - |
| 1777966802 | 25° C | 32% | 1007.4 hPa | - | 4.92 m/s, 119° | - | - |
| 1777966201 | 23.89° C | 31% | 1007.4 hPa | - | 4.02 m/s, 140° | - | - |
| 1777965600 | 23.89° C | 32% | 1007.4 hPa | - | 1.79 m/s, 169° | - | - |
| 1777965000 | 22.78° C | 35% | 1007.4 hPa | - | 0.89 m/s, 154° | - | - |
| 1777964400 | 22.78° C | 34% | 1007.4 hPa | - | 3.13 m/s, 139° | - | - |
| 1777963800 | 22.22° C | 40% | 1007.7 hPa | - | 0.89 m/s, 159° | - | - |
| 1777963200 | 20° C | 59% | 1007.7 hPa | - | 4.02 m/s, 77° | - | - |
| 1777962600 | 20° C | 60% | 1007.7 hPa | - | 0 m/s | - | - |
| 1777962001 | 18.89° C | 61% | 1007.7 hPa | - | 1.79 m/s, 142° | - | - |
* Rain since midnight (hover to see other rain measurements)
** Current wind speed in m/s (hover to see current wind gust speed)